Pinedale, WY

1:23 AM MDT on June 23, 2017 (GMT -0600)
Wenz

Weather History for KPNA - October, 2012

Change the Weather History Date:

Wednesday, October 10, 2012

  Actual Average (KBPI) Record (KBPI)
Temperature  
Mean Temperature 42 °F -  
Max Temperature 64 °F 57 °F 77 °F (1996)
Min Temperature 19 °F 22 °F 11 °F (2009)
Degree Days  
Heating Degree Days 24    
Moisture  
Dew Point 18 °F    
Average Humidity 46    
Maximum Humidity 86    
Minimum Humidity 14    
Precipitation  
Precipitation 0.00 in - - ()
Sea Level Pressure  
Sea Level Pressure 30.13 in    
Wind  
Wind Speed 4 mph (WNW)    
Max Wind Speed 14 mph    
Max Gust Speed 22 mph    
Visibility 10 miles    
Events      
Averages and records for this station are not official NWS values.
T = Trace of Precipitation, MM = Missing Value Source: NWS Daily Summary

Daily Weather History Graph

Daily Weather History Graph

Search for Another Location

Airport or City:

Trip Planner

Search our weather history database for the weather conditions in past years. The results will help you decide how hot, cold, wet, or windy it might be!

Date:

Astronomy

Oct. 10, 2012 Rise Set
Actual Time 7:27 AM MDT 6:44 PM MDT
Civil Twilight 6:58 AM MDT 7:12 PM MDT
Nautical Twilight 6:26 AM MDT 7:45 PM MDT
Astronomical Twilight 5:53 AM MDT 8:17 PM MDT
Moon 2:00 AM MDT (10/10) 3:54 PM MDT (10/10)
Length of Visible Light 12h 13m
Length of Day
11h 16m
Waning Crescent, 26% of the Moon is Illuminated
Oct 10
Waning Crescent
Oct 15
New
Oct 21
First Quarter
Oct 29
Full
Nov 6
Last Quarter

Hourly Weather History & Observations

Time (MDT) Temp. Windchill Dew Point Humidity Pressure Visibility Wind Dir Wind Speed Gust Speed Precip Events Conditions
12:15 AM 30.2 °F - 17.6 °F 60% 30.17 in 10.0 mi Calm Calm - N/A   Clear
12:35 AM 28.4 °F - 17.6 °F 64% 30.18 in 10.0 mi Calm Calm - N/A   Clear
12:55 AM 26.6 °F 19.1 °F 17.6 °F 69% 30.18 in 10.0 mi WSW 6.9 mph - N/A   Clear
1:15 AM 30.2 °F 26.7 °F 19.4 °F 64% 30.19 in 10.0 mi West 3.5 mph - N/A   Clear
1:35 AM 28.4 °F 23.3 °F 17.6 °F 64% 30.19 in 10.0 mi West 4.6 mph - N/A   Clear
1:55 AM 28.4 °F 23.3 °F 17.6 °F 64% 30.19 in 10.0 mi WNW 4.6 mph - N/A   Clear
2:15 AM 26.6 °F 21.2 °F 17.6 °F 69% 30.19 in 10.0 mi NW 4.6 mph - N/A   Clear
2:35 AM 26.6 °F 20.0 °F 17.6 °F 69% 30.19 in 10.0 mi NNW 5.8 mph - N/A   Clear
2:55 AM 24.8 °F 20.5 °F 17.6 °F 74% 30.19 in 10.0 mi West 3.5 mph - N/A   Clear
3:15 AM 23.0 °F 15.8 °F 17.6 °F 80% 30.19 in 10.0 mi WNW 5.8 mph - N/A   Clear
3:35 AM 21.2 °F 13.6 °F 15.8 °F 80% 30.19 in 10.0 mi West 5.8 mph - N/A   Clear
3:55 AM 21.2 °F 13.6 °F 17.6 °F 86% 30.18 in 10.0 mi WNW 5.8 mph - N/A   Clear
4:15 AM 23.0 °F 13.9 °F 17.6 °F 80% 30.18 in 10.0 mi WNW 8.1 mph - N/A   Clear
4:35 AM 23.0 °F 18.4 °F 15.8 °F 74% 30.18 in 10.0 mi WNW 3.5 mph - N/A   Clear
4:55 AM 21.2 °F 14.9 °F 15.8 °F 80% 30.18 in 10.0 mi NW 4.6 mph - N/A   Clear
5:15 AM 21.2 °F 14.9 °F 14.0 °F 74% 30.18 in 10.0 mi NW 4.6 mph - N/A   Clear
5:35 AM 21.2 °F - 15.8 °F 80% 30.19 in 10.0 mi Calm Calm - N/A   Clear
5:55 AM 19.4 °F 14.3 °F 14.0 °F 80% 30.19 in 10.0 mi North 3.5 mph - N/A   Clear
6:15 AM 19.4 °F - 15.8 °F 86% 30.19 in 10.0 mi Calm Calm - N/A   Clear
6:35 AM 19.4 °F 11.5 °F 15.8 °F 86% 30.19 in 10.0 mi West 5.8 mph - N/A   Clear
6:55 AM 21.2 °F 11.7 °F 15.8 °F 80% 30.19 in 10.0 mi West 8.1 mph - N/A   Clear
7:15 AM 21.2 °F 11.7 °F 14.0 °F 74% 30.19 in 10.0 mi West 8.1 mph - N/A   Clear
7:35 AM 21.2 °F 12.6 °F 15.8 °F 80% 30.19 in 10.0 mi WNW 6.9 mph - N/A   Clear
7:55 AM 21.2 °F 14.9 °F 15.8 °F 80% 30.19 in 10.0 mi NW 4.6 mph - N/A   Clear
8:15 AM 24.8 °F 16.1 °F 17.6 °F 74% 30.19 in 10.0 mi NW 8.1 mph - N/A   Clear
8:35 AM 28.4 °F 23.3 °F 19.4 °F 69% 30.19 in 10.0 mi WNW 4.6 mph - N/A   Clear
8:55 AM 32.0 °F 25.6 °F 21.2 °F 64% 30.19 in 10.0 mi NW 6.9 mph - N/A   Clear
9:15 AM 32.0 °F 24.8 °F 21.2 °F 64% 30.20 in 10.0 mi WNW 8.1 mph - N/A   Clear
9:35 AM 35.6 °F 30.7 °F 21.2 °F 56% 30.19 in 10.0 mi WNW 5.8 mph - N/A   Clear
9:55 AM 39.2 °F 35.0 °F 23.0 °F 52% 30.19 in 10.0 mi NW 5.8 mph - N/A   Clear
10:15 AM 42.8 °F 41.1 °F 23.0 °F 46% 30.19 in 10.0 mi WNW 3.5 mph - N/A   Clear
10:35 AM 46.4 °F - 23.0 °F 40% 30.18 in 10.0 mi Calm Calm - N/A   Clear
10:55 AM 50.0 °F - 23.0 °F 35% 30.18 in 10.0 mi Calm Calm - N/A   Clear
11:15 AM 50.0 °F - 23.0 °F 35% 30.17 in 10.0 mi Calm Calm - N/A   Clear
11:35 AM 53.6 °F - 19.4 °F 26% 30.16 in 10.0 mi Calm Calm - N/A   Clear
11:55 AM 55.4 °F - 21.2 °F 26% 30.16 in 10.0 mi NNE 3.5 mph - N/A   Clear
12:15 PM 55.4 °F - 19.4 °F 25% 30.15 in 10.0 mi Calm Calm - N/A   Clear
12:35 PM 55.4 °F - 19.4 °F 25% 30.14 in 10.0 mi Calm Calm - N/A   Clear
12:55 PM 57.2 °F - 19.4 °F 23% 30.14 in 10.0 mi East 4.6 mph - N/A   Clear
1:15 PM 59.0 °F - 19.4 °F 22% 30.13 in 10.0 mi ENE 3.5 mph - N/A   Clear
1:35 PM 60.8 °F - 17.6 °F 19% 30.11 in 10.0 mi Calm Calm - N/A   Clear
1:55 PM 59.0 °F - 15.8 °F 19% 30.10 in 10.0 mi East 3.5 mph - N/A   Clear
2:15 PM 60.8 °F - 15.8 °F 17% 30.09 in 10.0 mi Calm Calm - N/A   Clear
2:35 PM 62.6 °F - 14.0 °F 15% 30.08 in 10.0 mi NW 4.6 mph - N/A   Clear
2:55 PM 62.6 °F - 14.0 °F 15% 30.08 in 10.0 mi Calm Calm - N/A   Clear
3:15 PM 62.6 °F - 14.0 °F 15% 30.07 in 10.0 mi West 8.1 mph - N/A   Clear
3:35 PM 64.4 °F - 15.8 °F 15% 30.06 in 10.0 mi WSW 4.6 mph - N/A   Clear
3:55 PM 64.4 °F - 15.8 °F 15% 30.06 in 10.0 mi West 9.2 mph - N/A   Clear
4:15 PM 64.4 °F - 14.0 °F 14% 30.05 in 10.0 mi West 9.2 mph - N/A   Scattered Clouds
4:35 PM 62.6 °F - 14.0 °F 15% 30.05 in 10.0 mi West 9.2 mph - N/A   Scattered Clouds
4:55 PM 64.4 °F - 15.8 °F 15% 30.05 in 10.0 mi West 13.8 mph 19.6 mph N/A   Mostly Cloudy
5:15 PM 62.6 °F - 17.6 °F 18% 30.05 in 10.0 mi West 11.5 mph 19.6 mph N/A   Scattered Clouds
5:35 PM 62.6 °F - 17.6 °F 18% 30.05 in 10.0 mi West 10.4 mph 17.3 mph N/A   Scattered Clouds
5:55 PM 60.8 °F - 15.8 °F 17% 30.05 in 10.0 mi West 13.8 mph 21.9 mph N/A   Scattered Clouds
6:15 PM 60.8 °F - 15.8 °F 17% 30.05 in 10.0 mi West 11.5 mph - N/A   Scattered Clouds
6:35 PM 59.0 °F - 15.8 °F 19% 30.05 in 10.0 mi WNW 10.4 mph - N/A   Mostly Cloudy
6:55 PM 55.4 °F - 17.6 °F 23% 30.05 in 10.0 mi WNW 5.8 mph - N/A   Scattered Clouds
7:15 PM 51.8 °F - 17.6 °F 26% 30.06 in 10.0 mi NW 5.8 mph - N/A   Clear
7:35 PM 48.2 °F - 17.6 °F 30% 30.06 in 10.0 mi WNW 5.8 mph - N/A   Clear
7:55 PM 46.4 °F 44.3 °F 17.6 °F 32% 30.06 in 10.0 mi WNW 4.6 mph - N/A   Mostly Cloudy
8:15 PM 46.4 °F 42.4 °F 17.6 °F 32% 30.07 in 10.0 mi WNW 8.1 mph - N/A   Overcast
8:35 PM 44.6 °F 41.4 °F 17.6 °F 34% 30.08 in 10.0 mi West 5.8 mph - N/A   Mostly Cloudy
8:55 PM 41.0 °F 37.1 °F 17.6 °F 39% 30.08 in 10.0 mi NNW 5.8 mph - N/A   Scattered Clouds
9:15 PM 42.8 °F 38.0 °F 17.6 °F 36% 30.08 in 10.0 mi NNW 8.1 mph - N/A   Mostly Cloudy
9:35 PM 42.8 °F 41.1 °F 17.6 °F 36% 30.08 in 10.0 mi WNW 3.5 mph - N/A   Mostly Cloudy
9:55 PM 41.0 °F 38.0 °F 17.6 °F 39% 30.09 in 10.0 mi West 4.6 mph - N/A   Scattered Clouds
10:15 PM 39.2 °F 35.9 °F 19.4 °F 45% 30.09 in 10.0 mi West 4.6 mph - N/A   Scattered Clouds
10:35 PM 41.0 °F 39.0 °F 17.6 °F 39% 30.09 in 10.0 mi WNW 3.5 mph - N/A   Scattered Clouds
10:55 PM 37.4 °F 34.9 °F 17.6 °F 45% 30.09 in 10.0 mi WNW 3.5 mph - N/A   Scattered Clouds
11:15 PM 37.4 °F - 17.6 °F 45% 30.09 in 10.0 mi Calm Calm - N/A   Mostly Cloudy
11:35 PM 37.4 °F - 17.6 °F 45% 30.10 in 10.0 mi Calm Calm - N/A   Mostly Cloudy